RH
49 46 46 52 52 49 62 56 70 53 49 36 29 26 20 22 26 29 29 22 24 26 26 23 23 21 21 22 25 31 35 54 58 60 62 64 67 73 83 90 96 95 93 96
79 56 55 62 51 49 49 47 47 44 43 29 25 20 21 22 28 30 30 26 25 26 26 27 25 25 25 25 26 33 37 42 51 56 59 64 68 70 78 87 94 97 94 94
78 51 69 80 55 46 44 41 39 51 37 27 27 25 26 25 28 30 30 27 30 28 26 26 27 28 27 28 29 31 39 44 46 50 56 61 64 68 72 78 89 96 95 93
86 74 82 39 32 31 36 34 30 33 29 27 27 32 32 29 29 31 32 34 32 29 29 27 29 31 30 31 32 38 44 47 50 54 56 58 61 64 67 70 82 89 91 92
91 69 53 48 31 30 36 41 28 28 28 30 35 38 37 28 32 34 36 34 34 33 31 30 31 31 32 32 36 38 43 49 52 55 60 60 63 66 67 72 77 82 84 85
91 90 70 36 28 28 31 37 32 37 48 52 46 59 46 39 40 40 38 36 35 35 35 36 35 33 33 34 35 38 40 44 48 56 60 61 63 66 69 75 77 81 75 76
75 78 53 32 30 32 50 58 54 52 48 52 54 48 45 41 41 39 38 36 36 38 39 39 38 38 39 39 39 40 43 47 53 58 64 66 68 71 76 79 76 71 68 66
71 88 78 34 38 49 44 41 42 39 48 54 52 48 44 42 43 40 40 40 41 42 43 43 44 44 43 43 43 44 46 51 57 65 69 71 72 74 78 75 68 61 59 58
40 38 29 30 32 30 34 41 46 45 45 43 46 46 43 44 40 41 46 48 49 49 50 49 48 45 43 41 41 42 43 45 53 62 69 73 77 80 82 75 68 62 56 51
40 34 33 33 32 27 30 46 47 43 43 42 48 46 44 46 49 52 56 58 56 56 55 54 53 51 50 47 44 42 42 43 50 54 63 70 78 82 82 77 70 65 58 52
53 48 41 28 28 40 38 33 40 42 46 50 46 51 52 55 56 56 61 62 59 60 59 57 54 54 52 49 47 45 45 45 52 57 64 68 74 81 81 77 70 66 61 58
48 32 34 47 46 37 39 49 53 60 54 46 44 46 48 54 63 68 70 67 64 64 66 62 59 56 53 52 52 51 48 48 52 62 73 80 86 87 81 78 74 70 65 64
35 34 33 41 42 49 65 59 66 52 47 42 37 36 40 44 55 70 79 79 71 73 69 66 65 60 56 55 56 57 55 55 56 63 78 88 91 89 90 92 86 81 74 71
32 54 65 62 66 58 59 55 44 43 43 40 35 35 35 36 43 51 65 74 76 78 73 75 75 68 65 60 58 58 58 58 60 68 80 87 88 91 92 91 96 99 91 80
64 56 50 39 37 33 31 36 39 38 34 34 32 34 36 34 38 46 56 64 73 77 76 81 97 92 82 84 83 79 69 62 64 71 81 90 92 95 96 93 93 92 100 97
55 48 38 36 37 30 28 29 33 36 37 38 39 38 36 36 40 43 48 55 62 66 73 80 98 98 100 100 100 100 91 74 70 74 84 94 98 98 98 97 94 91 95 96
56 52 44 37 36 32 34 36 38 40 40 40 42 44 44 43 42 41 40 46 53 59 69 80 98 100 100 100 100 100 100 98 85 87 92 98 99 98 98 98 97 94 92 94
44 43 43 44 45 44 37 36 37 37 37 37 42 45 47 44 44 46 51 51 53 57 65 75 98 100 100 100 100 100 100 99 96 96 97 99 99 100 99 99 99 99 98 94
48 46 41 36 40 44 40 40 41 41 38 39 42 45 48 50 52 51 50 53 55 60 59 75 97 100 100 100 100 100 100 100 98 96 100 100 100 100 100 100 100 100 100 100
55 51 52 44 39 48 42 38 40 41 42 44 45 46 49 48 47 48 50 55 55 58 64 83 99 100 100 100 100 100 100 100 100 100 100 100 100 100 100 100 100 100 100 100
41 41 44 52 48 46 47 42 43 42 42 42 44 45 45 46 46 50 55 61 55 58 70 94 100 100 100 100 100 100 100 100 100 100 100 100 100 100 100 100 100 100 100 100
36 38 41 43 41 41 40 40 41 42 43 44 45 47 50 51 52 53 56 61 63 70 90 99 100 100 100 99 100 100 100 100 100 100 100 100 100 100 100 100 100 100 99 99
40 40 41 41 41 42 42 43 44 45 47 49 51 52 54 53 53 60 67 61 66 75 89 100 100 99 99 100 100 100 99 100 100 100 100 100 100 100 99 99 98 98 98 98
48 46 45 45 45 46 48 47 46 47 49 52 55 57 58 59 58 59 63 67 73 81 95 100 99 99 99 99 99 99 99 99 99 99 99 98 98 98 98 98 98 98 98 97
48 50 51 54 57 56 53 53 54 56 54 53 54 56 58 59 64 65 70 75 81 92 100 99 99 99 98 98 98 98 98 98 98 97 97 97 98 98 97 97 97 97 97 97
53 53 51 51 52 52 52 52 54 53 53 55 56 57 59 61 66 71 75 78 87 99 100 98 98 98 98 97 97 97 97 97 97 97 97 97 97 97 97 97 97 96 96 85
50 51 52 52 51 50 50 52 54 55 56 58 59 59 61 65 73 81 81 82 89 100 99 98 98 97 97 97 97 97 97 97 97 96 97 96 97 96 96 94 82 65 60 59
Wind_Speed
20 22 21 22 23 22 21 21 15 22 22 25 21 21 13 7 10 15 13 12 12 12 12 16 17 17 15 16 17 17 18 19 21 19 16 15 15 15 14 12 11 10 11 9
9 18 21 21 21 25 23 22 24 27 29 25 20 5 6 8 11 14 14 11 12 14 15 14 19 19 18 17 17 16 17 19 20 19 16 16 15 14 14 14 13 11 10 9
15 14 12 14 18 12 9 14 15 16 21 11 10 10 11 11 14 14 14 12 15 17 17 22 23 24 22 20 18 18 18 19 20 19 18 17 16 14 14 14 13 13 11 8
8 8 10 6 10 10 12 15 13 17 14 11 9 11 13 15 14 14 14 17 17 16 22 23 25 25 25 23 20 19 19 21 20 19 19 17 16 15 14 13 13 12 11 7
4 10 18 20 6 3 4 11 9 12 4 9 14 15 15 12 17 16 20 19 21 25 25 26 28 26 25 25 20 21 20 22 21 20 19 18 17 16 15 13 12 11 9 7
5 6 7 6 4 3 1 12 9 11 14 21 21 14 12 17 17 19 23 24 24 27 26 25 26 27 23 25 23 25 20 22 21 21 21 19 18 16 14 13 12 9 8 6
13 9 11 9 4 2 6 5 14 15 16 15 14 12 18 19 20 23 24 27 28 25 22 25 26 25 25 26 25 26 24 22 22 22 22 22 18 16 15 14 11 11 9 7
6 6 9 8 4 4 13 18 18 19 13 14 17 18 19 20 18 18 18 27 30 24 24 25 25 24 24 23 30 27 26 23 22 21 22 21 21 18 17 15 14 13 11 9
12 10 13 20 19 19 17 19 19 17 19 20 19 20 19 17 18 18 21 22 25 26 28 29 26 25 24 27 28 26 23 23 22 21 20 22 21 20 18 17 16 14 12 11
20 18 17 16 20 20 19 16 17 20 21 20 20 19 20 18 18 16 21 23 25 25 26 28 29 28 29 32 30 27 26 24 23 21 20 20 19 20 19 18 17 16 14 12
20 19 22 22 20 22 20 20 19 20 20 20 19 20 19 17 18 17 20 24 26 25 25 29 32 31 32 31 29 27 26 25 22 21 20 20 21 20 21 22 21 18 16 15
18 22 19 19 17 24 21 19 17 17 18 17 17 18 17 15 16 17 19 24 25 25 27 31 32 32 32 30 30 28 25 24 21 19 19 20 19 18 23 21 21 21 16 16
18 17 19 20 22 15 13 17 15 17 17 17 17 19 20 16 19 20 20 25 25 27 29 30 32 31 31 30 28 27 25 25 22 20 18 19 20 19 14 19 20 20 19 16
18 12 12 10 12 15 13 16 19 20 21 20 19 21 20 18 23 21 21 25 27 27 28 30 32 31 30 29 27 27 26 27 23 20 19 19 20 20 18 16 15 14 18 17
6 8 12 12 10 12 14 13 14 16 16 15 20 17 18 13 15 22 26 27 26 27 29 27 29 29 28 27 27 27 26 22 20 18 19 20 20 20 19 19 17 16 17 15
7 9 12 12 13 14 15 16 15 15 15 15 15 19 20 21 25 26 27 26 23 18 29 28 29 30 29 27 25 25 24 25 23 19 17 19 20 19 19 19 19 20 20 20
10 13 13 12 11 14 16 14 14 15 16 15 19 23 24 23 23 24 27 27 27 29 29 29 32 30 30 28 25 22 21 22 21 17 18 18 19 19 19 20 20 21 23 28
14 14 15 16 16 16 15 16 18 20 17 24 24 24 22 18 16 22 27 31 29 30 29 28 29 30 33 29 26 23 22 21 19 17 18 18 19 19 19 20 20 20 22 27
19 16 16 16 20 17 15 16 21 25 25 25 23 20 22 24 23 25 26 27 26 21 27 26 29 33 32 30 29 24 22 20 18 17 17 18 18 17 17 18 18 20 24 27
17 24 24 23 24 22 17 25 26 24 26 23 22 21 19 24 25 25 26 23 25 26 28 27 28 30 29 29 27 23 21 19 16 15 16 15 14 14 16 19 21 22 25 27
17 20 19 21 21 27 26 26 26 23 25 24 20 19 22 26 28 25 21 12 25 27 27 27 26 27 26 27 24 23 20 17 15 14 11 11 11 12 14 17 21 23 24 24
17 16 17 22 21 23 28 27 27 26 26 25 25 25 23 21 26 25 22 22 30 24 24 23 25 27 26 29 24 21 19 17 14 12 10 12 13 14 15 17 18 21 23 26
19 21 23 22 20 22 27 29 29 27 25 25 24 25 23 22 24 13 12 21 20 24 26 24 26 24 27 23 19 18 15 11 7 5 7 11 14 16 18 20 22 25 26 27
22 23 24 27 25 22 17 27 27 26 27 27 27 27 25 21 24 22 23 25 21 24 22 24 22 21 20 16 14 11 9 5 5 9 13 17 19 21 22 23 24 26 28 30
26 25 26 24 14 13 22 25 24 24 25 24 24 24 24 24 21 24 22 23 22 22 20 19 16 14 12 10 9 8 8 8 8 12 16 19 21 23 24 25 28 30 30 28
22 17 20 24 23 24 24 25 16 21 21 18 21 21 21 21 21 21 20 20 19 18 17 14 12 9 6 6 8 10 12 13 17 18 21 23 25 26 27 28 28 28 26 24
25 28 23 21 24 24 24 23 19 16 21 21 20 21 21 20 19 20 19 18 16 16 11 9 5 3 3 7 11 13 15 17 19 23 24 26 27 28 28 27 26 25 23 23
Wind_Direction
261 278 283 277 276 274 256 234 251 272 273 277 295 306 301 319 342 344 347 341 348 344 341 331 324 318 310 297 283 275 262 250 250 252 251 253 256 259 262 263 266 274 293 300
279 274 269 277 276 264 258 256 256 261 269 279 291 325 318 306 335 338 333 331 335 331 327 327 324 314 312 303 293 281 268 255 249 247 249 251 254 259 261 259 262 266 275 293
280 304 330 281 256 254 256 231 244 251 253 317 277 330 332 316 320 321 330 330 327 321 317 314 316 312 306 304 296 286 265 260 256 253 247 245 248 247 252 255 258 263 263 281
289 311 267 298 298 271 264 269 248 251 271 308 322 326 326 304 294 323 332 323 312 309 310 307 307 305 301 299 292 282 270 261 256 251 251 248 245 245 248 247 249 254 258 264
252 256 284 290 296 15 357 310 340 279 290 346 331 321 302 323 343 331 316 306 302 300 303 302 302 302 303 293 289 279 270 265 257 247 242 244 242 240 241 244 243 243 251 263
209 258 269 71 127 54 14 288 37 19 346 331 322 309 311 339 320 305 302 302 303 302 300 295 294 300 301 294 288 279 273 269 265 251 242 238 237 235 232 229 237 236 238 248
236 253 269 294 351 70 274 345 330 323 311 316 312 311 316 314 310 309 310 309 309 306 300 296 297 296 293 292 278 278 279 273 261 249 239 234 231 227 223 223 223 227 229 226
233 251 271 24 88 249 335 322 324 320 328 313 307 308 312 304 310 310 307 308 311 312 307 304 300 295 288 283 284 285 286 275 265 249 239 230 223 215 216 220 217 221 224 219
268 266 303 317 304 311 317 314 321 327 315 316 306 306 306 307 304 303 309 314 316 315 312 307 303 300 296 291 290 290 281 279 270 260 243 231 215 212 206 213 218 215 215 219
266 275 278 296 314 300 298 331 313 313 311 309 308 307 305 308 306 310 314 314 313 313 309 308 308 305 297 295 295 290 285 278 271 259 245 230 222 215 209 208 211 220 208 213
277 291 292 294 310 317 311 308 306 305 308 306 310 308 309 308 308 307 310 308 316 311 312 308 308 304 300 300 297 288 282 275 267 262 244 227 223 219 219 215 212 211 213 201
283 291 294 304 299 293 308 319 325 313 301 306 305 304 309 311 312 308 307 312 316 313 314 310 311 307 306 303 299 289 281 275 266 254 241 224 211 217 226 226 220 223 217 203
288 297 302 310 307 319 316 306 299 298 303 307 310 312 311 311 309 308 306 301 312 315 313 312 310 307 306 306 302 291 282 278 273 257 236 225 211 206 206 217 222 217 216 206
297 332 310 314 294 295 294 289 301 297 295 294 297 301 309 313 310 310 304 302 305 308 309 313 310 310 312 312 311 301 291 282 264 258 240 229 219 209 207 200 194 192 204 205
315 283 272 278 279 279 296 299 302 304 306 309 311 312 307 308 310 307 306 303 301 302 302 310 307 306 312 314 309 305 297 284 270 255 241 229 221 213 201 206 191 178 163 178
255 250 262 280 284 302 309 308 306 302 305 305 305 305 307 307 307 309 308 309 307 303 303 304 305 299 305 304 301 299 297 288 270 258 244 230 220 211 199 200 187 175 167 168
244 260 277 277 287 295 302 299 296 297 301 299 300 302 304 302 300 304 310 309 306 303 303 303 299 297 303 303 300 295 291 288 280 254 237 225 220 213 206 196 188 177 172 169
247 266 280 281 282 278 290 294 291 293 296 298 298 296 292 293 295 300 302 308 307 303 301 300 299 300 306 304 302 298 292 285 272 256 239 228 223 215 207 197 185 171 163 165
262 270 275 283 282 276 285 291 288 287 292 294 296 290 289 290 290 292 298 302 302 301 303 307 307 311 306 306 309 303 291 284 275 258 240 229 222 208 199 188 175 166 156 157
269 275 282 278 288 277 280 288 288 287 286 287 289 290 290 289 291 292 297 292 292 292 300 304 306 307 305 310 313 306 303 287 277 264 245 226 210 198 188 179 167 160 156 159
285 282 281 281 289 288 284 285 286 284 287 290 288 284 286 290 291 292 293 293 300 303 305 303 306 306 306 311 314 310 304 298 284 263 234 212 197 181 172 165 158 154 152 148
282 284 280 280 282 284 283 284 284 284 284 284 284 284 282 281 288 296 286 286 295 301 308 301 304 310 312 315 312 310 309 306 285 263 233 198 172 157 151 148 142 136 134 132
281 284 281 278 279 280 282 280 280 281 284 283 281 280 278 276 282 288 291 294 294 296 300 295 307 308 315 317 320 320 321 315 293 245 182 154 140 130 125 124 124 127 127 131
279 280 278 281 282 278 273 276 279 282 281 281 278 277 277 276 281 282 282 290 296 299 297 299 306 311 319 325 332 336 350 17 78 108 108 116 115 116 117 119 116 119 123 131
281 279 279 279 277 273 274 276 278 277 278 281 281 279 273 269 262 284 289 291 294 298 296 307 307 320 329 346 1 21 40 58 85 103 104 104 105 107 110 114 118 124 128 133
278 275 275 275 272 274 275 275 272 276 281 284 281 280 279 277 277 288 288 290 293 293 292 300 311 327 344 27 54 67 76 87 94 94 100 101 103 103 107 112 117 123 126 132
280 277 276 274 271 267 266 268 271 272 273 272 275 279 279 279 284 290 287 287 291 286 287 296 319 357 76 84 81 86 93 100 106 107 106 107 111 115 119 121 125 128 130 129